Flugplatz Geilenkirchen (ETNG)

Hier findest Du alle Informationen zum Flugplatz Geilenkirchen (ETNG).

Informationen für Piloten zum Flugplatz Geilenkirchen

Hier findest Du alle relevanten Informationen, die Du als Pilot benötigst, um Geilenkirchen anzufliegen.

Flugplatz: Geilenkirchen ICAO-Code: ETNG
Frequenz Turm: 122,100 Mhz GAFOR Gebiet: 31
Frequenz Ground: 122,100 Mhz Mogas: nein
Platzrunde: - Landegebühr: -
Platzhöhe: - Sunrise: 06:37 Uhr UTC
Pisten: 09/27 - 3.050 m x , BIT Sunset: 17:01 Uhr UTC

Mitglieder, die in Geilenkirchen fliegen

Flugwetter am Flugplatz Geilenkirchen

Die METAR Information stammen aus EDLN (43.90 km entfernt).

METAR Code:
2019/02/14 10:20
EDLN 141020Z 11007KT CAVOK 06/01 Q1036

Flugschulen am Flugplatz Geilenkirchen

Am Flugplatz Geilenkirchen gibt es leider keine Flugschule.

Benachbarte Flugplätze und Flugschulen

Es gibt 13 weitere Flugplätze in einem Umkreis von 50 km um den Flugplatz Geilenkirchen.

Jetzt anmelden

Passwort vergessen

Umfrage Archiv

Welche Art von Theorieunterricht würde Dir am ehesten zusagen?

Frontalunterricht
64.1 %
Selbststudium
35.9 %
Stimmen: 315 | Diskussion
Anzeige: Roland Aircraft
Statistik Alle Mitglieder

Aktuell sind 37 Besucher online, davon 5 Mitglieder und 32 Gäste.


Mitglieder online:
BravoEcho  forester  cbk  skyfool  spoossfleeger 

Anzeige: VFR Sprechfunk Simulator


Anzeige: Pocket FMS